Location: Country Club Park
(34.0503°N, 118.3212°W)
Time: 16:33:08
(UTC+00:00)

Envisat - Visible Passes

Search period start: 05 October 2022 00:00
Search period end: 15 October 2022 00:00
Orbit: 764 x 765 km, 98.2° (Epoch: 04 October)

Date Brightness Start Highest point End Pass type
(mag) Time Alt. Az. Time Alt. Az. Time Alt. Az.
05 Oct 5.3 11:11:06 10° NE 11:14:50 20° E 11:18:33 10° SE visible
05 Oct 3.5 12:49:14 10° N 12:53:53 37° WNW 12:58:31 10° SW visible
06 Oct 2.9 12:11:58 10° NNE 12:17:04 90° WNW 12:22:08 10° SSW visible
07 Oct 4.4 11:35:22 10° NNE 11:40:04 37° E 11:44:43 10° SSE visible
07 Oct 4.2 13:15:01 10° NNW 13:18:46 21° WNW 13:22:31 10° WSW visible
08 Oct 5.7 10:59:55 10° ENE 11:02:52 15° E 11:05:48 10° SE visible
08 Oct 3.2 12:37:12 10° N 12:42:05 49° WNW 12:46:57 10° SSW visible
09 Oct 3.2 12:00:08 10° NNE 12:05:12 69° ESE 12:10:15 10° S visible
10 Oct 4.8 11:23:48 10° NE 11:28:08 28° E 11:32:28 10° SSE visible
10 Oct 3.9 13:02:46 10° NNW 13:07:00 27° WNW 13:11:14 10° SW visible
11 Oct 5.9 10:49:20 10° ENE 10:50:53 11° E 10:52:27 10° ESE visible
11 Oct 2.9 12:25:13 10° N 12:30:15 65° WNW 12:35:16 10° SSW visible
12 Oct 3.7 11:48:22 10° NNE 11:53:19 52° E 11:58:15 10° S visible
12 Oct 4.5 13:28:54 10° NNW 13:31:50 16° WNW 13:34:45 10° W visible
13 Oct 5.2 11:12:20 10° NE 11:16:12 22° E 11:20:02 10° SE visible
13 Oct 3.5 12:50:38 10° N 12:55:13 35° WNW 12:59:48 10° SW visible
14 Oct 2.9 12:13:18 10° N 12:18:24 85° WNW 12:23:29 10° SSW visible
